SCP
4 4 3 3 2 2 0 0 0 0 0 0 0 0 0 0 1 2 2 3 3 5
2 2 1 1 0 0 0 0 0 0 0 0 0 0 0 0 0 0 0 1 2 1
0 0 0 0 0 0 0 0 0 0 0 0 0 0 0 0 0 0 0 0 0 0
0 0 0 0 0 0 0 0 0 0 0 0 0 0 0 0 0 0 0 0 0 0
0 0 0 0 0 0 0 0 0 0 0 0 0 0 0 0 0 0 0 0 0 0
0 0 0 0 0 0 0 0 0 0 0 0 0 0 0 0 0 0 0 0 0 0
0 0 0 0 0 0 0 0 0 0 0 0 0 0 0 0 0 0 0 0 0 0
0 0 0 0 0 0 0 0 0 0 0 0 0 0 0 0 0 0 0 0 0 0
0 0 0 0 0 0 0 0 0 0 0 0 0 0 0 0 0 0 0 0 0 0
0 0 0 0 0 0 0 0 0 0 0 0 0 0 0 0 0 0 0 0 0 0
0 0 0 0 0 0 0 0 0 0 0 0 0 0 0 0 0 0 0 0 0 0
0 0 0 0 0 0 0 0 0 0 0 0 0 0 0 0 0 0 0 0 0 0
0 0 0 0 0 0 0 0 0 0 0 0 0 0 0 0 0 0 0 0 0 0
0 0 0 0 0 0 0 0 0 0 0 0 0 0 0 -0 -0 0 0 0 0 0
Wind_Speed_500mb
19 20 17 18 13 11 2 4 5 10 18 24 30 31 33 28 22 27 38 41 45 47
27 26 10 10 7 4 9 6 6 13 15 18 23 26 30 21 33 33 35 35 34 41
26 24 19 14 10 4 1 7 12 13 18 23 24 28 31 27 26 35 34 34 41 46
27 23 18 14 10 6 9 13 15 16 15 18 22 26 32 32 31 33 37 38 40 43
22 16 9 5 7 12 13 15 18 20 24 22 24 26 28 31 32 33 36 40 42 44
20 16 14 14 16 16 18 21 21 23 24 25 26 27 25 34 37 38 38 38 40 43
18 15 19 20 19 20 20 22 25 24 24 23 25 22 36 43 44 41 37 38 41 41
22 24 29 24 19 20 22 22 21 25 22 22 19 30 40 40 41 36 34 36 39 38
26 24 21 22 21 22 23 26 25 22 22 23 17 32 34 36 39 31 34 36 39 41
18 16 17 16 17 21 23 24 23 21 19 17 25 30 32 38 36 34 34 38 41 41
18 16 17 18 21 21 19 21 21 19 19 18 21 32 32 40 40 39 43 47 49 48
16 15 16 19 19 18 18 19 18 18 20 22 25 36 37 48 48 50 51 46 46 43
14 14 17 18 16 16 17 18 19 23 22 27 30 38 46 47 44 47 50 52 46 51
14 15 16 13 14 16 20 24 25 28 29 26 29 30 36 46 53 53 56 52 45 44
Wind_Direction_500mb
195 203 202 182 157 158 120 212 240 266 271 273 277 280 280 292 289 291 281 292 294 289
170 172 192 144 101 92 148 0 279 289 289 294 291 291 290 300 292 298 295 288 293 293
106 102 101 116 145 125 312 328 330 312 310 314 312 312 305 304 298 294 301 297 286 292
94 92 93 88 70 29 344 340 337 328 319 314 320 319 310 307 314 297 297 298 300 297
89 83 72 30 331 317 313 305 302 302 301 306 318 307 314 314 308 304 301 302 303 301
70 56 35 14 354 344 333 332 328 329 329 333 324 332 305 312 314 314 312 313 310 306
41 23 1 349 345 339 339 333 337 337 347 342 345 307 316 321 318 318 318 316 306 307
355 352 337 340 341 345 347 349 343 346 346 343 352 312 330 335 335 334 327 317 310 311
358 351 342 348 354 354 350 347 355 355 353 350 315 329 346 352 354 341 338 331 328 324
12 5 5 6 2 359 0 359 1 354 350 357 324 330 346 352 354 341 335 331 326 332
12 14 5 360 360 1 357 356 359 350 350 344 340 337 341 343 342 341 337 338 336 331
15 10 355 0 359 359 4 358 4 351 344 346 347 331 341 344 341 336 335 330 326 330
9 0 1 2 2 1 11 354 4 357 348 351 347 342 340 334 336 330 327 330 334 338
360 6 357 4 2 13 7 3 2 359 359 356 342 347 337 339 335 330 333 339 333 332
Wind_Speed_850mb
19 20 17 18 13 11 2 4 5 10 18 24 30 31 33 28 22 27 38 41 45 47
27 26 10 10 7 4 9 6 6 13 15 18 23 26 30 21 33 33 35 35 34 41
26 24 19 14 10 4 1 7 12 13 18 23 24 28 31 27 26 35 34 34 41 46
27 23 18 14 10 6 9 13 15 16 15 18 22 26 32 32 31 33 37 38 40 43
22 16 9 5 7 12 13 15 18 20 24 22 24 26 28 31 32 33 36 40 42 44
20 16 14 14 16 16 18 21 21 23 24 25 26 27 25 34 37 38 38 38 40 43
18 15 19 20 19 20 20 22 25 24 24 23 25 22 36 43 44 41 37 38 41 41
22 24 29 24 19 20 22 22 21 25 22 22 19 30 40 40 41 36 34 36 39 38
26 24 21 22 21 22 23 26 25 22 22 23 17 32 34 36 39 31 34 36 39 41
18 16 17 16 17 21 23 24 23 21 19 17 25 30 32 38 36 34 34 38 41 41
18 16 17 18 21 21 19 21 21 19 19 18 21 32 32 40 40 39 43 47 49 48
16 15 16 19 19 18 18 19 18 18 20 22 25 36 37 48 48 50 51 46 46 43
14 14 17 18 16 16 17 18 19 23 22 27 30 38 46 47 44 47 50 52 46 51
14 15 16 13 14 16 20 24 25 28 29 26 29 30 36 46 53 53 56 52 45 44
Wind_Direction_850mb
195 203 202 182 157 158 120 212 240 266 271 273 277 280 280 292 289 291 281 292 294 289
170 172 192 144 101 92 148 0 279 289 289 294 291 291 290 300 292 298 295 288 293 293
106 102 101 116 145 125 312 328 330 312 310 314 312 312 305 304 298 294 301 297 286 292
94 92 93 88 70 29 344 340 337 328 319 314 320 319 310 307 314 297 297 298 300 297
89 83 72 30 331 317 313 305 302 302 301 306 318 307 314 314 308 304 301 302 303 301
70 56 35 14 354 344 333 332 328 329 329 333 324 332 305 312 314 314 312 313 310 306
41 23 1 349 345 339 339 333 337 337 347 342 345 307 316 321 318 318 318 316 306 307
355 352 337 340 341 345 347 349 343 346 346 343 352 312 330 335 335 334 327 317 310 311
358 351 342 348 354 354 350 347 355 355 353 350 315 329 346 352 354 341 338 331 328 324
12 5 5 6 2 359 0 359 1 354 350 357 324 330 346 352 354 341 335 331 326 332
12 14 5 360 360 1 357 356 359 350 350 344 340 337 341 343 342 341 337 338 336 331
15 10 355 0 359 359 4 358 4 351 344 346 347 331 341 344 341 336 335 330 326 330
9 0 1 2 2 1 11 354 4 357 348 351 347 342 340 334 336 330 327 330 334 338
360 6 357 4 2 13 7 3 2 359 359 356 342 347 337 339 335 330 333 339 333 332